Regional Weather Roundup
Issued by NWS Kansas City/Pleasant Hill, MO

Home | Current Version | Previous Version | Text Only | Print | Product List | Glossary On
Versions: 1 2 3 4 5 6 7 8 9 10 11 12 13 14 15 16 17 18 19 20 21 22 23 24 25 26 27 28 29 30 31 32 33 34 35 36 37 38 39 40 41 42 43 44 45 46 47 48 49 50
000
ASUS43 KEAX 221111
RWREAX

WEATHER ROUNDUP FOR EASTERN KANSAS AND NORTHWEST MISSOURI
NATIONAL WEATHER SERVICE KANSAS CITY/PLEASANT HILL MO
600 AM CDT WED OCT 22 2014

KSZ040-057-103>105-MOZ028-029-037-043-221200-
...KANSAS CITY METROPOLITAN AREA...

CITY           SKY/WX    TMP DP  RH WIND       PRES   REMARKS
K.C. INTL      CLOUDY    55  46  71 SE12      30.16R
K.C. DOWNTOWN  CLOUDY    57  46  66 E7        30.17R
LEES SUMMIT    CLOUDY    53  45  74 SE8       30.17R
OLATHE - IXD   CLOUDY    55  47  74 SE7       30.16R
OLATHE - OJC   CLOUDY    54  47  77 SE9       30.16R
LAWRENCE       MOCLDY    56  47  71 E8        30.15R

$$

MOZ001>008-011>017-020>025-030>033-038>040-044>046-053-054-221200-
...NORTHERN AND CENTRAL MISSOURI...

CITY           SKY/WX    TMP DP  RH WIND       PRES   REMARKS
ST. JOSEPH     CLOUDY    56  46  69 SE9       30.16R
MOSBY          CLOUDY    52  45  76 E3        30.19R
WHITEMAN AFB   CLEAR     46  43  86 SE6       30.19R
CLINTON        CLEAR     50  46  87 E5        30.18R
SEDALIA        CLEAR     47  42  83 SE7       30.21R
WARSAW         NOT AVBL
MARSHALL       CLEAR     48  45  87 E5        30.23R
CHILLICOTHE      N/A     47  40  76 SE5       30.23R
MOBERLY        CLEAR     43  37  81 E6        30.25R
KIRKSVILLE     CLEAR     41  39  93 E7        30.26R

$$

MOZ041-047>049-056>058-063>065-088>090-097-221200-
...EASTERN AND SOUTHERN MISSOURI...

CITY           SKY/WX    TMP DP  RH WIND       PRES   REMARKS
ST. LOUIS INTL CLEAR     43  38  82 E5        30.27S
SPIRIT OF STL  CLEAR     38  37  97 CALM      30.27R
COLUMBIA       CLEAR     45  40  82 E9        30.23R
JEFFERSON CITY CLEAR     44  40  85 SE5       30.24R
MEXICO         CLEAR    N/A N/A N/A E5        30.26R HAZE
HANNIBAL       CLEAR     43  39  87 E3        30.28R
ROLLA          CLEAR     44  40  85 E8        30.22R
LEBANON        CLEAR     46  43  87 SE7       30.22R
OSAGE BEACH    CLEAR     45  39  81 E6        30.22R
SPRINGFIELD    CLEAR     51  44  77 SE14      30.17S
BRANSON        CLEAR     48  46  93 SE12      30.19S
NEVADA         PTCLDY    52  45  76 SE9       30.17R
JOPLIN         CLEAR     53  48  83 SE8       30.15R
WEST PLAINS    CLEAR     45  41  86 E5        30.24R

$$

IAZ060-094-KSZ022-034>040-054-083-096-NEZ052-066-093-221200-
...KANSAS...SOUTHEAST NEBRASKA AND IOWA...

CITY           SKY/WX    TMP DP  RH WIND       PRES   REMARKS
TOPEKA         PTCLDY    53  47  79 E7        30.14R
MANHATTAN      CLEAR     58  48  69 CALM      30.09R
EMPORIA        PTCLDY    53  49  86 SE8       30.11R
CHANUTE        MOCLDY    56  50  80 SE6       30.13R
WICHITA        CLEAR     59  56  89 S7        30.08R
OMAHA          MOCLDY    55  44  66 SE16      30.11R
LINCOLN        CLEAR     54  43  66 S12       30.08S
FALLS CITY     PTCLDY    53  46  77 SE7       30.12R
LAMONI         CLOUDY    47  40  76 VRB7      30.21R
DES MOINES     PTCLDY    45  38  76 SE9       30.22R

$$




USA.gov is the U.S. government's official web portal to all federal, state and local government web resources and services.